Regional Weather Roundup
Issued by NWS Sioux Falls, SD

Home | Current Version | Previous Version | Graphics & Text | Print | Product List | Glossary Off
Versions: 1 2 3 4 5 6 7 8 9 10 11 12 13 14 15 16 17 18 19 20 21 22 23 24 25 26 27 28 29 30 31 32 33 34 35 36 37 38 39 40 41 42 43 44 45 46 47 48 49 50

607
ASUS43 KFSD 011510
RWRFSD

WEATHER ROUNDUP FOR SE SOUTH DAKOTA/SW MINNESOTA/NW IOWA
NATIONAL WEATHER SERVICE SIOUX FALLS SD
900 AM CST WED MAR 01 2017

NOTE: "FAIR" INDICATES FEW OR NO CLOUDS BELOW 12,000 FEET WITH NO
SIGNIFICANT WEATHER AND OR OBSTRUCTIONS TO VISIBILITY.


SDZ038>040-050-052>070-011600-
SOUTHEAST SOUTH DAKOTA

CITY           SKY/WX    TMP DP  RH WIND       PRES   REMARKS
BROOKINGS      SUNNY     24  20  84 NW15      29.94R WCI  11
CHAMBERLAIN    LGT SNOW  25  24  95 W14       30.05R WCI  13
HURON          CLOUDY    21  19  92 NW13      30.03R WCI   9
MADISON        FAIR      21  21 100 NW14      29.96R WCI   8
MITCHELL       SUNNY     25  22  88 W13       30.04R WCI  14
SIOUX FALLS    MOSUNNY   25  21  85 NW16      29.97R WCI  12
WINNER         CLOUDY    31  25  78 NW23G32   30.06R WCI  18
YANKTON          N/A    N/A N/A N/A MISG        N/A
$$

MNZ071-072-080-081-089-090-097-098-011600-
SOUTHWEST MINNESOTA

CITY           SKY/WX    TMP DP  RH WIND       PRES   REMARKS
FAIRMONT       FLURRIES  31  27  85 NW18      29.87R WCI  19
JACKSON        PTSUNNY   28  27  93 NW15G21   29.88R WCI  17
LUVERNE        SUNNY     28  23  80 NW15      29.93R WCI  17
MARSHALL       SUNNY     26  21  81 NW17      29.93R WCI  13
MONTEVIDEO     SUNNY     25  21  86 N12       29.95R WCI  14
PIPESTONE      MOSUNNY   27  19  74 NW16      29.92R WCI  14
REDWOOD FALLS  PTSUNNY   28  22  78 NW10      29.90S WCI  19
TRACY          MOSUNNY   27  23  85 NW14      29.92R WCI  16
WINDOM         SUNNY     27  25  93 NW17      29.88R WCI  14
WORTHINGTON    PTSUNNY   28  24  85 NW18      29.91R WCI  15
$$

IAZ001>003-012>014-020>022-031-032-NEZ013-014-SDZ071-011600-
NORTHWEST IOWA

CITY           SKY/WX    TMP DP  RH WIND       PRES   REMARKS
CHEROKEE       LGT SNOW  30  28  94 NW14G21   29.94R WCI  19
DENISON        CLOUDY    30  28  93 NW18G25   29.93R WCI  18
ESTHERVILLE    CLOUDY    29  27  92 NW18      29.87R WCI  16
LE MARS        MOSUNNY   28  25  86 NW15G22   29.98R WCI  17
SHELDON        CLOUDY    27  28 100 NW17      29.92R WCI  14
SIOUX CITY     CLOUDY    31  25  78 NW23G31   29.99R WCI  18
SPENCER        CLOUDY    30  26  85 NW17G25   29.91R WCI  18
STORM LAKE     CLOUDY    28  27  93 NW20G26   29.91R WCI  15
$$

ABBREVIATIONS USED IN REMARKS
   TC - TEMPERATURE IN CELSIUS
  WCI - WIND CHILL INDEX
   HX - HEAT INDEX
  VSB - VISIBILITY





USA.gov is the U.S. government's official web portal to all federal, state and local government web resources and services.